Date,TemperatureHighF,TemperatureAvgF,TemperatureLowF,DewpointHighF,DewpointAvgF,DewpointLowF,HumidityHigh,HumidityAvg,HumidityLow,PressureMaxIn,PressureMinIn,WindSpeedMaxMPH,WindSpeedAvgMPH,GustSpeedMaxMPH,PrecipitationSumIn
2013-1-1,36.7,32.9,23.9,30.0,24.4,14.0,81,71,58,30.02,29.85,10,3,14,0.03
2013-1-2,32.3,24.6,17.7,18.0,14.5,12.0,81,66,50,30.18,30.00,8,2,15,0.03
2013-1-3,30.8,25.0,19.1,21.0,16.3,14.0,81,70,56,30.20,30.07,11,3,14,0.00
2013-1-4,36.1,31.3,24.8,25.0,21.9,19.0,79,69,59,30.09,29.96,13,5,22,0.02
2013-1-5,41.7,33.2,28.7,24.0,22.0,19.0,81,64,47,30.29,30.03,13,3,21,0.03
2013-1-6,42.9,35.2,28.8,31.0,27.7,23.0,86,74,59,30.20,29.97,10,2,14,0.01
2013-1-7,43.3,35.1,27.6,30.0,26.2,23.0,87,72,49,30.38,30.05,11,2,17,0.01
2013-1-8,45.0,33.9,25.7,32.0,27.1,23.0,90,77,58,30.39,30.34,9,2,11,0.00
2013-1-9,39.7,30.9,22.5,36.0,26.0,-99.9,94,87,80,30.38,30.15,4,-20,12,0.01
2013-1-10,48.2,39.6,33.0,32.0,27.2,26.0,83,62,43,30.53,30.26,7,2,18,0.00
2013-1-11,42.6,36.0,30.2,39.0,32.4,26.0,96,87,77,30.52,30.09,5,0,8,0.36
2013-1-12,43.3,40.1,36.8,42.0,39.2,36.0,97,96,95,30.16,30.08,5,0,7,0.36
2013-1-13,46.5,43.9,40.5,46.0,43.4,40.0,98,98,97,30.13,29.97,3,0,8,0.01
2013-1-14,54.1,46.7,37.2,51.0,41.2,30.0,98,83,55,30.28,29.87,10,2,14,0.05
2013-1-15,36.3,34.3,32.1,32.0,28.4,26.0,93,79,68,30.34,30.20,6,1,8,0.02
2013-1-16,33.5,31.3,29.9,32.0,29.9,28.0,96,94,89,30.20,29.84,6,1,11,0.01
2013-1-17,41.2,35.9,32.4,33.0,29.3,25.0,95,77,62,30.08,29.92,11,2,13,0.38
2013-1-18,32.2,26.9,22.7,25.0,13.2,7.0,79,57,39,30.45,30.00,11,3,19,0.38
2013-1-19,46.1,36.5,24.3,29.0,23.1,11.0,72,59,47,30.37,29.89,12,4,16,0.16
2013-1-20,50.3,38.0,26.5,32.0,22.7,11.0,80,57,27,30.04,29.70,22,4,30,0.16
2013-1-21,27.7,24.3,20.2,20.0,13.5,9.0,84,64,49,30.07,29.85,8,2,15,0.00
2013-1-22,22.1,16.0,9.8,13.0,0.8,-6.0,67,52,40,30.21,29.85,20,6,26,0.00
2013-1-23,17.5,11.1,7.0,4.0,-0.7,-5.0,83,60,39,30.26,30.17,13,4,17,0.00
2013-1-24,21.5,13.0,5.0,7.0,2.4,-2.0,88,65,39,30.44,30.14,13,3,23,0.00
2013-1-25,20.4,14.1,8.4,14.0,5.4,-2.0,89,69,50,30.45,30.06,6,2,14,0.00
2013-1-26,26.5,17.2,7.7,12.0,8.2,5.0,89,69,46,30.39,30.06,10,2,23,0.00
2013-1-27,34.5,21.9,11.0,15.0,11.0,7.0,86,65,38,30.55,30.39,8,1,14,0.00
2013-1-28,32.9,27.8,19.0,32.0,24.8,13.0,95,88,75,30.49,30.00,6,1,14,0.00
2013-1-29,49.7,40.8,33.0,44.0,38.3,32.0,96,91,80,30.13,30.01,7,1,9,0.08
2013-1-30,63.6,51.1,42.9,59.0,49.9,42.0,98,95,85,30.03,29.29,10,2,21,0.57
2013-1-31,56.1,40.3,25.9,56.0,29.3,11.0,98,67,43,29.77,29.01,22,9,31,0.01